Tracking 20040 objects as of 19-Nov-2019
Live streaming from Space Station
objects crossing your sky now

USA 143

Track USA 143 now!
10-day predictions
USA 143 is classified as:


NORAD ID: 25724
Int'l Code: 1999-023A
Perigee: 1,118.3 km
Apogee: 5,141.4 km
Inclination: 28.2 °
Period: 153.6 minutes
Semi major axis: 9500 km
RCS: Unknown
Launch date: April 30, 1999
Source: United States (US)
Launch site: AIR FORCE EASTERN TEST RANGE (AFETR)
aabbcc
Your satellite tracking list
Your tracking list is empty




NASA's NSSDC Master Catalog

Two Line Element Set (TLE):
1 25724U 99023A   19249.82103414 0.00000000  00000-0  00000-0 0    04
2 25724  28.2064 144.7525 2117261 257.4463 102.5532  9.37476176    01
Source of the keplerian elements: McCants